TAP1454 LPPT-GMMX

Flight info

Callsign TAP1454
Flight time 1h 15m
Altitude 39000
Route DUZOP DCT AMSEL UR722 MABAP
Aircraft A20N/M-SADE3FGHIJ3J7M3RWXYZ/LB1D1

Departure

Time 2026-05-05 14:50
Airport Lisbon Humberto Delgado Airport (LPPT)

Arrival

Time 2026-05-05 16:05
Airport Marrakesh Menara Airport (GMMX)
Time Latitude Longitude Altitude Speed Heading
2026-05-05 14:19 38.76529 -9.13383 344 ft 0 kts 73°
2026-05-05 14:41 38.76527 -9.13394 344 ft 4 kts 70°
2026-05-05 14:41 38.76515 -9.13424 344 ft 4 kts 41°
2026-05-05 14:42 38.76494 -9.13435 345 ft 3 kts 346°
2026-05-05 14:42 38.76487 -9.13433 345 ft 0 kts 344°
2026-05-05 14:45 38.76488 -9.13434 345 ft 2 kts 344°
2026-05-05 14:45 38.76527 -9.13448 345 ft 11 kts 343°
2026-05-05 14:45 38.76606 -9.13478 346 ft 12 kts 344°
2026-05-05 14:46 38.76640 -9.13574 345 ft 15 kts 259°
2026-05-05 14:46 38.76616 -9.13708 345 ft 16 kts 259°
2026-05-05 14:46 38.76595 -9.13849 353 ft 17 kts 259°
2026-05-05 14:46 38.76572 -9.13975 345 ft 11 kts 251°
2026-05-05 14:47 38.76526 -9.14059 346 ft 12 kts 228°
2026-05-05 14:47 38.76494 -9.14153 345 ft 9 kts 272°
2026-05-05 14:47 38.76505 -9.14207 342 ft 0 kts 291°
2026-05-05 14:48 38.76509 -9.14219 341 ft 0 kts 291°
2026-05-05 14:48 38.76518 -9.14246 340 ft 8 kts 294°
2026-05-05 14:48 38.76551 -9.14338 336 ft 14 kts 294°
2026-05-05 14:48 38.76620 -9.14396 336 ft 14 kts
2026-05-05 14:49 38.76711 -9.14353 338 ft 14 kts 21°
2026-05-05 14:49 38.76950 -9.14228 345 ft 71 kts 22°
2026-05-05 14:49 38.77343 -9.14019 360 ft 112 kts 22°
2026-05-05 14:49 38.78537 -9.13359 653 ft 150 kts 22°
2026-05-05 14:50 38.79470 -9.12806 1326 ft 149 kts 21°
2026-05-05 14:50 38.80404 -9.12228 2008 ft 150 kts 22°
2026-05-05 14:50 38.81383 -9.11576 2466 ft 167 kts 25°
2026-05-05 14:50 38.82084 -9.11082 2761 ft 180 kts 26°
2026-05-05 14:51 38.83227 -9.10248 3271 ft 200 kts 27°
2026-05-05 14:51 38.84510 -9.09298 3811 ft 224 kts 28°
2026-05-05 14:51 38.85940 -9.08233 4573 ft 244 kts 28°
2026-05-05 14:51 38.87307 -9.06853 5399 ft 264 kts 50°
2026-05-05 14:52 38.88106 -9.04706 6460 ft 274 kts 77°
2026-05-05 14:52 38.88057 -9.02248 7536 ft 282 kts 104°
2026-05-05 14:52 38.87234 -8.99922 8564 ft 290 kts 118°
2026-05-05 14:52 38.85951 -8.97915 9585 ft 296 kts 142°
2026-05-05 14:53 38.84092 -8.96739 10502 ft 305 kts 167°
2026-05-05 14:53 38.81919 -8.96575 10970 ft 325 kts 191°
2026-05-05 14:53 38.79704 -8.97470 11425 ft 342 kts 207°
2026-05-05 14:53 38.77559 -8.98842 12300 ft 347 kts 211°
2026-05-05 14:54 38.75429 -9.00237 13267 ft 350 kts 210°
2026-05-05 14:54 38.73208 -9.01594 14165 ft 355 kts 208°
2026-05-05 14:54 38.70935 -9.02891 15036 ft 360 kts 207°
2026-05-05 14:54 38.68622 -9.04154 15902 ft 364 kts 207°
2026-05-05 14:55 38.66275 -9.05410 16734 ft 368 kts 207°
2026-05-05 14:55 38.63896 -9.06674 17537 ft 371 kts 207°
2026-05-05 14:55 38.61497 -9.07949 18300 ft 375 kts 207°
2026-05-05 14:55 38.59076 -9.09237 19064 ft 379 kts 207°
2026-05-05 14:56 38.56629 -9.10540 19811 ft 383 kts 207°
2026-05-05 14:56 38.54155 -9.11855 20502 ft 387 kts 208°
2026-05-05 14:56 38.51684 -9.13168 21190 ft 391 kts 208°
2026-05-05 14:56 38.49162 -9.14509 21871 ft 395 kts 208°
2026-05-05 14:57 38.46604 -9.15828 22522 ft 400 kts 204°
2026-05-05 14:57 38.43830 -9.16523 23143 ft 415 kts 188°
2026-05-05 14:57 38.40916 -9.16255 23760 ft 428 kts 173°
2026-05-05 14:57 38.38060 -9.15023 24351 ft 440 kts 158°
2026-05-05 14:58 38.35421 -9.12983 24946 ft 448 kts 148°
2026-05-05 14:58 38.32889 -9.10625 25494 ft 453 kts 147°
2026-05-05 14:58 38.30345 -9.08206 26000 ft 457 kts 147°
2026-05-05 14:58 38.27763 -9.05814 26531 ft 460 kts 148°
2026-05-05 14:59 38.25148 -9.03458 27038 ft 462 kts 149°
2026-05-05 14:59 38.22498 -9.01117 27522 ft 465 kts 150°
2026-05-05 14:59 38.19824 -8.98777 27985 ft 468 kts 150°
2026-05-05 14:59 38.17131 -8.96430 28408 ft 471 kts 150°
2026-05-05 15:00 38.14417 -8.94068 28875 ft 473 kts 151°
2026-05-05 15:00 38.12616 -8.92501 29137 ft 475 kts 151°
2026-05-05 15:00 38.08981 -8.89346 29645 ft 478 kts 152°
2026-05-05 15:00 38.06114 -8.87228 30033 ft 474 kts 160°
2026-05-05 15:01 38.03117 -8.85496 30462 ft 473 kts 162°
2026-05-05 15:01 38.00095 -8.83797 30854 ft 476 kts 162°
2026-05-05 15:01 37.97062 -8.82087 31287 ft 477 kts 162°
2026-05-05 15:01 37.94049 -8.80380 31978 ft 470 kts 162°
2026-05-05 15:02 37.91073 -8.78695 32565 ft 467 kts 163°
2026-05-05 15:02 37.88101 -8.77016 33048 ft 466 kts 163°
2026-05-05 15:02 37.85139 -8.75347 33538 ft 464 kts 163°
2026-05-05 15:02 37.82237 -8.73712 34004 ft 462 kts 163°
2026-05-05 15:03 37.79304 -8.72062 34469 ft 460 kts 163°
2026-05-05 15:03 37.76371 -8.70415 34867 ft 459 kts 163°
2026-05-05 15:03 37.73451 -8.68775 35254 ft 458 kts 163°
2026-05-05 15:03 37.70536 -8.67139 35593 ft 458 kts 163°
2026-05-05 15:04 37.67619 -8.65505 35929 ft 458 kts 164°
2026-05-05 15:04 37.64667 -8.64067 36245 ft 454 kts 167°
2026-05-05 15:04 37.61725 -8.62718 36528 ft 454 kts 167°
2026-05-05 15:04 37.58757 -8.61356 36835 ft 454 kts 167°
2026-05-05 15:05 37.52826 -8.58628 37436 ft 452 kts 167°
2026-05-05 15:05 37.49874 -8.57270 37723 ft 451 kts 167°
2026-05-05 15:05 37.46913 -8.55908 38047 ft 449 kts 167°
2026-05-05 15:06 37.43981 -8.54562 38332 ft 448 kts 167°
2026-05-05 15:06 37.41061 -8.53225 38601 ft 447 kts 167°
2026-05-05 15:06 37.38139 -8.51887 38843 ft 446 kts 167°
2026-05-05 15:06 37.35263 -8.50571 39026 ft 446 kts 167°
2026-05-05 15:07 37.32350 -8.49237 39044 ft 445 kts 167°
2026-05-05 15:07 37.26527 -8.46577 39038 ft 445 kts 167°
2026-05-05 15:08 37.20708 -8.43925 39036 ft 444 kts 167°
2026-05-05 15:08 37.14900 -8.41278 39032 ft 443 kts 167°
2026-05-05 15:09 37.09096 -8.38639 39027 ft 443 kts 167°
2026-05-05 15:09 37.03325 -8.36019 39028 ft 443 kts 167°
2026-05-05 15:10 36.97528 -8.33391 39030 ft 443 kts 167°
2026-05-05 15:10 36.91720 -8.30763 39029 ft 443 kts 167°
2026-05-05 15:11 36.85909 -8.28138 39029 ft 443 kts 167°
2026-05-05 15:11 36.80111 -8.25526 39018 ft 443 kts 167°
2026-05-05 15:12 36.74339 -8.22925 39030 ft 443 kts 167°
2026-05-05 15:12 36.68538 -8.20316 39028 ft 443 kts 167°
2026-05-05 15:13 36.62737 -8.17714 39035 ft 443 kts 167°
2026-05-05 15:13 36.56936 -8.15114 39038 ft 442 kts 167°
2026-05-05 15:14 36.51147 -8.12521 39034 ft 442 kts 167°
2026-05-05 15:14 36.45356 -8.09932 39031 ft 441 kts 166°
2026-05-05 15:15 36.39615 -8.07372 39028 ft 440 kts 167°
2026-05-05 15:15 36.33850 -8.04805 39027 ft 440 kts 167°
2026-05-05 15:16 36.28090 -8.02244 39027 ft 439 kts 167°
2026-05-05 15:16 36.22335 -7.99687 39024 ft 439 kts 167°
2026-05-05 15:17 36.16590 -7.97140 39024 ft 438 kts 167°
2026-05-05 15:17 36.10844 -7.94598 39017 ft 438 kts 167°
2026-05-05 15:18 36.05132 -7.92074 39015 ft 438 kts 167°
2026-05-05 15:18 35.99365 -7.89608 39010 ft 435 kts 170°
2026-05-05 15:19 35.93492 -7.88079 39012 ft 428 kts 179°
2026-05-05 15:19 35.87589 -7.87497 39012 ft 425 kts 182°
2026-05-05 15:20 35.81712 -7.86979 39016 ft 426 kts 182°
2026-05-05 15:20 35.75792 -7.86441 39015 ft 426 kts 182°
2026-05-05 15:21 35.69880 -7.85907 39020 ft 426 kts 182°
2026-05-05 15:21 35.63959 -7.85370 39023 ft 426 kts 182°
2026-05-05 15:22 35.58035 -7.84834 39022 ft 426 kts 182°
2026-05-05 15:22 35.52155 -7.84303 39025 ft 426 kts 182°
2026-05-05 15:23 35.46230 -7.83770 39030 ft 426 kts 182°
2026-05-05 15:23 35.40306 -7.83238 39022 ft 426 kts 182°
2026-05-05 15:24 35.34413 -7.82735 39020 ft 423 kts 183°
2026-05-05 15:24 35.28553 -7.82245 39012 ft 424 kts 183°
2026-05-05 15:25 35.22675 -7.81750 39020 ft 423 kts 183°
2026-05-05 15:25 35.16793 -7.81256 39016 ft 423 kts 183°
2026-05-05 15:26 35.10916 -7.80761 39023 ft 423 kts 184°
2026-05-05 15:26 35.05047 -7.80269 39028 ft 423 kts 184°
2026-05-05 15:27 34.99173 -7.79775 39024 ft 422 kts 184°
2026-05-05 15:27 34.93359 -7.79288 39024 ft 421 kts 184°
2026-05-05 15:28 34.87511 -7.78798 39024 ft 421 kts 184°
2026-05-05 15:28 34.81662 -7.78307 39023 ft 420 kts 184°
2026-05-05 15:29 34.75831 -7.77822 39024 ft 419 kts 184°
2026-05-05 15:29 34.70018 -7.77374 39032 ft 418 kts 185°
2026-05-05 15:30 34.64205 -7.76982 39032 ft 417 kts 185°
2026-05-05 15:30 34.58436 -7.76585 39032 ft 417 kts 185°
2026-05-05 15:31 34.52635 -7.76180 39033 ft 417 kts 185°
2026-05-05 15:31 34.46835 -7.75778 39034 ft 417 kts 185°
2026-05-05 15:32 34.41067 -7.75377 39034 ft 417 kts 185°
2026-05-05 15:32 34.35274 -7.74974 39032 ft 416 kts 185°
2026-05-05 15:33 34.29479 -7.74575 39037 ft 416 kts 185°
2026-05-05 15:33 34.23741 -7.74174 39035 ft 416 kts 185°
2026-05-05 15:34 34.17953 -7.73772 39037 ft 416 kts 185°
2026-05-05 15:34 34.12169 -7.73253 39043 ft 417 kts 184°
2026-05-05 15:35 34.06385 -7.72693 39043 ft 417 kts 184°
2026-05-05 15:35 34.00596 -7.72153 39041 ft 416 kts 184°
2026-05-05 15:36 33.94816 -7.71619 39037 ft 416 kts 185°
2026-05-05 15:36 33.89078 -7.71092 39037 ft 416 kts 185°
2026-05-05 15:37 33.83306 -7.70562 39039 ft 416 kts 185°
2026-05-05 15:37 33.77529 -7.70033 39039 ft 416 kts 185°
2026-05-05 15:38 33.71748 -7.69502 39041 ft 416 kts 185°
2026-05-05 15:38 33.66951 -7.69061 39042 ft 416 kts 185°
2026-05-05 15:39 33.61166 -7.68532 39046 ft 416 kts 185°
2026-05-05 15:39 33.55417 -7.68291 39044 ft 406 kts 194°
2026-05-05 15:40 33.49995 -7.69597 39047 ft 391 kts 207°
2026-05-05 15:40 33.45182 -7.72301 39047 ft 381 kts 216°
2026-05-05 15:41 33.40542 -7.75405 39053 ft 382 kts 216°
2026-05-05 15:41 33.35901 -7.78481 39045 ft 380 kts 216°
2026-05-05 15:42 33.31274 -7.81538 39046 ft 379 kts 216°
2026-05-05 15:42 33.26651 -7.84595 39045 ft 379 kts 216°
2026-05-05 15:43 33.22038 -7.87644 39045 ft 378 kts 216°
2026-05-05 15:43 33.17443 -7.90676 39043 ft 377 kts 216°
2026-05-05 15:44 33.12881 -7.93679 39034 ft 376 kts 217°
2026-05-05 15:44 33.08303 -7.96689 39030 ft 375 kts 217°
2026-05-05 15:45 33.03731 -7.99693 39032 ft 374 kts 217°
2026-05-05 15:45 32.99165 -8.02690 38840 ft 375 kts 217°
2026-05-05 15:45 32.96847 -8.04138 38336 ft 379 kts 213°
2026-05-05 15:46 32.94389 -8.05392 37496 ft 390 kts 209°
2026-05-05 15:46 32.91789 -8.06410 36816 ft 395 kts 204°
2026-05-05 15:46 32.89095 -8.07176 36081 ft 400 kts 200°
2026-05-05 15:46 32.86326 -8.07684 35363 ft 404 kts 197°
2026-05-05 15:47 32.83572 -8.08120 34612 ft 405 kts 197°
2026-05-05 15:47 32.80780 -8.08571 33834 ft 405 kts 197°
2026-05-05 15:47 32.77991 -8.09028 33125 ft 403 kts 197°
2026-05-05 15:47 32.75207 -8.09485 32360 ft 404 kts 197°
2026-05-05 15:48 32.72420 -8.09944 31532 ft 405 kts 197°
2026-05-05 15:48 32.69635 -8.10399 30979 ft 400 kts 197°
2026-05-05 15:48 32.66900 -8.10843 30436 ft 394 kts 197°
2026-05-05 15:48 32.64225 -8.11278 29891 ft 389 kts 197°
2026-05-05 15:49 32.61562 -8.11711 29350 ft 384 kts 197°
2026-05-05 15:49 32.58930 -8.12141 28805 ft 380 kts 197°
2026-05-05 15:49 32.56320 -8.12567 28266 ft 376 kts 197°
2026-05-05 15:49 32.53738 -8.12990 27730 ft 372 kts 197°
2026-05-05 15:50 32.51141 -8.13426 27191 ft 383 kts 197°
2026-05-05 15:50 32.48469 -8.13875 26662 ft 391 kts 196°
2026-05-05 15:50 32.45756 -8.14323 25926 ft 396 kts 195°
2026-05-05 15:50 32.43007 -8.14772 24978 ft 402 kts 195°
2026-05-05 15:51 32.40233 -8.15223 24151 ft 403 kts 194°
2026-05-05 15:51 32.37465 -8.15669 23414 ft 400 kts 194°
2026-05-05 15:51 32.34753 -8.16105 22768 ft 396 kts 194°
2026-05-05 15:51 32.32034 -8.16543 22085 ft 392 kts 194°
2026-05-05 15:52 32.29345 -8.16980 21414 ft 388 kts 194°
2026-05-05 15:52 32.26683 -8.17413 20761 ft 383 kts 194°
2026-05-05 15:52 32.24054 -8.17837 20079 ft 380 kts 194°
2026-05-05 15:52 32.21446 -8.18260 19410 ft 376 kts 194°
2026-05-05 15:53 32.18866 -8.18678 18765 ft 372 kts 194°
2026-05-05 15:53 32.16304 -8.19094 18073 ft 370 kts 194°
2026-05-05 15:53 32.13774 -8.19503 17438 ft 365 kts 194°
2026-05-05 15:53 32.11265 -8.19917 16740 ft 363 kts 195°
2026-05-05 15:54 32.08822 -8.20396 16052 ft 360 kts 196°
2026-05-05 15:54 32.06364 -8.20909 15375 ft 357 kts 196°
2026-05-05 15:54 32.03922 -8.21426 14694 ft 355 kts 195°
2026-05-05 15:54 32.01492 -8.21942 14047 ft 353 kts 195°
2026-05-05 15:55 31.99082 -8.22454 13363 ft 351 kts 195°
2026-05-05 15:55 31.96694 -8.23030 12721 ft 346 kts 200°
2026-05-05 15:55 31.94503 -8.24098 12064 ft 338 kts 213°
2026-05-05 15:55 31.92613 -8.25724 11311 ft 336 kts 226°
2026-05-05 15:56 31.91125 -8.27819 10608 ft 333 kts 238°
2026-05-05 15:56 31.89999 -8.30167 10268 ft 323 kts 240°
2026-05-05 15:56 31.88845 -8.32332 10114 ft 309 kts 237°
2026-05-05 15:56 31.87612 -8.34335 9980 ft 295 kts 233°
2026-05-05 15:57 31.86330 -8.36163 9715 ft 287 kts 230°
2026-05-05 15:57 31.84983 -8.37860 9444 ft 280 kts 226°
2026-05-05 15:57 31.83567 -8.39446 9337 ft 285 kts 223°
2026-05-05 15:57 31.82547 -8.40467 9257 ft 285 kts 220°
2026-05-05 15:58 31.81677 -8.41250 9194 ft 284 kts 218°
2026-05-05 15:58 31.80045 -8.42575 9060 ft 285 kts 212°
2026-05-05 15:58 31.78173 -8.43363 8677 ft 290 kts 188°
2026-05-05 15:58 31.76166 -8.43137 8220 ft 294 kts 162°
2026-05-05 15:59 31.74417 -8.41905 7806 ft 295 kts 137°
2026-05-05 15:59 31.73191 -8.39967 7376 ft 296 kts 121°
2026-05-05 15:59 31.72230 -8.37837 6936 ft 293 kts 117°
2026-05-05 15:59 31.71305 -8.35718 6274 ft 291 kts 118°
2026-05-05 16:00 31.70343 -8.33634 5667 ft 289 kts 120°
2026-05-05 16:00 31.69355 -8.31621 5213 ft 285 kts 121°
2026-05-05 16:00 31.68368 -8.29677 4983 ft 271 kts 122°
2026-05-05 16:00 31.67402 -8.27798 4476 ft 268 kts 122°
2026-05-05 16:01 31.66434 -8.25928 4005 ft 269 kts 122°
2026-05-05 16:01 31.65485 -8.24099 3847 ft 257 kts 121°
2026-05-05 16:01 31.64580 -8.22352 3780 ft 245 kts 121°
2026-05-05 16:01 31.63702 -8.20667 3704 ft 238 kts 122°
2026-05-05 16:02 31.62846 -8.19039 3631 ft 230 kts 121°
2026-05-05 16:02 31.62160 -8.17394 3522 ft 220 kts 109°
2026-05-05 16:02 31.61800 -8.15686 3366 ft 209 kts 99°
2026-05-05 16:02 31.61601 -8.14057 3025 ft 194 kts 96°
2026-05-05 16:03 31.61475 -8.12557 2768 ft 173 kts 95°
2026-05-05 16:03 31.61356 -8.11239 2536 ft 155 kts 97°
2026-05-05 16:03 31.61251 -8.10029 2329 ft 142 kts 97°
2026-05-05 16:03 31.61153 -8.08913 2159 ft 137 kts 97°
2026-05-05 16:04 31.61054 -8.07803 1980 ft 137 kts 97°
2026-05-05 16:04 31.60960 -8.06707 1812 ft 134 kts 98°
2026-05-05 16:04 31.60862 -8.05609 1643 ft 134 kts 96°
2026-05-05 16:04 31.60773 -8.04537 1537 ft 125 kts 96°
2026-05-05 16:05 31.60697 -8.03719 1541 ft 72 kts 95°
2026-05-05 16:05 31.60655 -8.03346 1543 ft 34 kts 106°
2026-05-05 16:05 31.60570 -8.03144 1547 ft 19 kts 124°
2026-05-05 16:05 31.60520 -8.03064 1548 ft 11 kts 128°
2026-05-05 16:06 31.60482 -8.03006 1549 ft 11 kts 125°
2026-05-05 16:06 31.60453 -8.02912 1549 ft 14 kts 96°
2026-05-05 16:06 31.60442 -8.02787 1549 ft 15 kts 95°
2026-05-05 16:06 31.60434 -8.02689 1549 ft 11 kts 94°
2026-05-05 16:07 31.60428 -8.02611 1549 ft 8 kts 97°
2026-05-05 16:07 31.60382 -8.02582 1549 ft 8 kts 184°
2026-05-05 16:07 31.60347 -8.02586 1549 ft 7 kts 186°
2026-05-05 16:07 31.60304 -8.02592 1549 ft 3 kts 185°
2026-05-05 16:08 31.60303 -8.02592 1549 ft 0 kts 185°